Location: *
(60.1759°S, 155.0663°W)
Time: 11:51:35
(UTC+00:00)

IRIDIUM 104 - Pass Details

Date: 17 September 2019
Orbit: 776 x 779 km, 86.4° (Epoch: 15 October)

Event Time Altitude Azimuth Distance (km) Brightness Sun altitude
Rises 13:11:57 0° 188° (S) 3,311 8.0 -22.9°
Reaches altitude 10° 13:14:22 10° 192° (SSW) 2,377 7.2 -22.7°
Maximum altitude 13:19:32 54° 267° (W) 959 4.5 -22.2°
Enters shadow 13:20:11 51° 294° (WNW) 995 4.4 -22.1°
